TimeEDT,TemperatureF,Dew PointF,Humidity,Sea Level PressureIn,VisibilityMPH,Wind Direction,Wind SpeedMPH,Gust SpeedMPH,PrecipitationIn,Events,Conditions,WindDirDegrees,DateUTC
12:15 AM,39.2,28.4,65,29.80,10.0,WSW,9.2,-,N/A,,Overcast,240,2012-10-06 04:15:00
12:35 AM,39.2,28.4,65,29.80,10.0,WSW,8.1,-,N/A,,Overcast,240,2012-10-06 04:35:00
12:55 AM,39.2,28.4,65,29.79,10.0,SW,5.8,-,N/A,,Overcast,230,2012-10-06 04:55:00
1:15 AM,39.2,28.4,65,29.78,10.0,SW,6.9,-,N/A,,Overcast,220,2012-10-06 05:15:00
1:35 AM,39.2,28.4,65,29.78,10.0,SW,6.9,-,N/A,,Overcast,230,2012-10-06 05:35:00
1:55 AM,39.2,28.4,65,29.77,10.0,WSW,8.1,-,N/A,,Overcast,240,2012-10-06 05:55:00
2:15 AM,39.2,28.4,65,29.78,10.0,SW,6.9,-,N/A,,Overcast,230,2012-10-06 06:15:00
2:35 AM,39.2,28.4,65,29.78,10.0,WSW,8.1,-,N/A,,Overcast,240,2012-10-06 06:35:00
2:55 AM,39.2,30.2,70,29.77,10.0,WSW,9.2,-,N/A,,Overcast,240,2012-10-06 06:55:00
3:15 AM,39.2,30.2,70,29.76,10.0,SW,6.9,-,N/A,,Overcast,230,2012-10-06 07:15:00
3:35 AM,39.2,30.2,70,29.76,10.0,WSW,8.1,-,N/A,,Overcast,240,2012-10-06 07:35:00
3:55 AM,39.2,30.2,70,29.76,10.0,WSW,9.2,16.1,N/A,,Overcast,240,2012-10-06 07:55:00
4:15 AM,39.2,30.2,70,29.76,10.0,WSW,10.4,16.1,N/A,,Overcast,250,2012-10-06 08:15:00
4:35 AM,39.2,32.0,75,29.76,10.0,WSW,9.2,-,N/A,,Overcast,250,2012-10-06 08:35:00
4:55 AM,39.2,32.0,75,29.75,10.0,WSW,6.9,-,N/A,,Overcast,240,2012-10-06 08:55:00
5:15 AM,39.2,33.8,81,29.75,10.0,WSW,11.5,-,N/A,,Overcast,250,2012-10-06 09:15:00
5:35 AM,39.2,33.8,81,29.76,10.0,West,11.5,17.3,N/A,,Overcast,260,2012-10-06 09:35:00
5:55 AM,39.2,35.6,87,29.76,10.0,WSW,11.5,-,N/A,,Overcast,250,2012-10-06 09:55:00
6:15 AM,39.2,35.6,87,29.76,10.0,West,10.4,-,N/A,,Overcast,260,2012-10-06 10:15:00
6:35 AM,39.2,35.6,87,29.76,10.0,WSW,11.5,19.6,N/A,,Overcast,250,2012-10-06 10:35:00
6:55 AM,39.2,37.4,93,29.76,9.0,West,12.7,17.3,N/A,,Overcast,260,2012-10-06 10:55:00
7:15 AM,37.4,35.6,93,29.77,10.0,WSW,12.7,20.7,N/A,,Overcast,250,2012-10-06 11:15:00
7:35 AM,37.4,37.4,100,29.77,10.0,West,11.5,17.3,N/A,,Mostly Cloudy,260,2012-10-06 11:35:00
7:55 AM,37.4,35.6,93,29.77,10.0,West,11.5,17.3,N/A,,Mostly Cloudy,260,2012-10-06 11:55:00
8:15 AM,37.4,35.6,93,29.78,10.0,West,13.8,17.3,N/A,,Scattered Clouds,260,2012-10-06 12:15:00
8:35 AM,37.4,37.4,100,29.79,10.0,West,12.7,19.6,N/A,,Mostly Cloudy,260,2012-10-06 12:35:00
8:55 AM,37.4,37.4,100,29.79,10.0,West,11.5,-,N/A,,Mostly Cloudy,260,2012-10-06 12:55:00
9:15 AM,37.4,37.4,100,29.80,9.0,West,15.0,-,N/A,,Overcast,270,2012-10-06 13:15:00
9:35 AM,37.4,35.6,93,29.81,6.0,West,11.5,21.9,N/A,,Overcast,280,2012-10-06 13:35:00
9:55 AM,37.4,37.4,100,29.82,7.0,NW,18.4,26.5,0.03,,Overcast,310,2012-10-06 13:55:00
10:15 AM,37.4,37.4,100,29.83,9.0,WNW,13.8,19.6,0.03,,Overcast,290,2012-10-06 14:15:00
10:55 AM,37.4,37.4,100,29.84,8.0,WNW,13.8,26.5,0.06,,Overcast,290,2012-10-06 14:55:00
11:15 AM,37.4,37.4,100,29.85,8.0,NW,12.7,16.1,0.02,,Overcast,310,2012-10-06 15:15:00
11:35 AM,37.4,37.4,100,29.87,6.0,WNW,11.5,21.9,0.04,,Overcast,290,2012-10-06 15:35:00
11:55 AM,37.4,37.4,100,29.88,7.0,West,11.5,19.6,0.05,,Overcast,280,2012-10-06 15:55:00
12:15 PM,39.2,39.2,100,29.88,9.0,WNW,15.0,23.0,N/A,,Overcast,290,2012-10-06 16:15:00
12:35 PM,39.2,37.4,93,29.89,10.0,WNW,13.8,25.3,N/A,,Overcast,290,2012-10-06 16:35:00
12:55 PM,39.2,37.4,93,29.89,9.0,WNW,17.3,25.3,N/A,,Overcast,300,2012-10-06 16:55:00
1:15 PM,39.2,37.4,93,29.90,10.0,WNW,13.8,19.6,N/A,,Mostly Cloudy,290,2012-10-06 17:15:00
8:55 PM,35.6,35.6,100,30.05,10.0,East,5.8,-,N/A,,Overcast,80,2012-10-07 00:55:00
9:15 PM,35.6,35.6,100,30.05,10.0,South,4.6,-,N/A,,Overcast,170,2012-10-07 01:15:00
9:35 PM,35.6,35.6,100,30.06,10.0,South,3.5,-,N/A,,Overcast,190,2012-10-07 01:35:00
9:55 PM,35.6,35.6,100,30.06,10.0,South,4.6,-,N/A,,Overcast,170,2012-10-07 01:55:00
10:15 PM,35.6,35.6,100,30.06,10.0,Calm,Calm,-,N/A,,Overcast,0,2012-10-07 02:15:00
10:35 PM,35.6,35.6,100,30.07,10.0,West,3.5,-,N/A,,Overcast,270,2012-10-07 02:35:00
10:55 PM,33.8,33.8,100,30.07,6.0,Calm,Calm,-,0.03,,Overcast,0,2012-10-07 02:55:00
11:15 PM,33.8,33.8,100,30.08,5.0,North,3.5,-,0.01,,Overcast,360,2012-10-07 03:15:00
11:35 PM,33.8,33.8,100,30.08,5.0,Calm,Calm,-,0.02,,Overcast,0,2012-10-07 03:35:00
11:55 PM,33.8,33.8,100,30.07,8.0,Calm,Calm,-,0.03,,Overcast,0,2012-10-07 03:55:00